Location: Goettingen
(51.5300°N, 9.9433°E)
Time: 04:08:19
(UTC+02:00)

ISS - Pass Details

Date: 26 March 2020
Orbit: 417 x 423 km, 51.6° (Epoch: 29 March)

Event Time Altitude Azimuth Distance (km) Brightness Sun altitude
Rises 19:50:47 0° 263° (W) 2,358 1.3 -10.9°
Reaches altitude 10° 19:52:53 10° 263° (W) 1,495 0.2 -11.2°
Maximum altitude 19:56:14 89° 324° (NW) 423 -3.8 -11.7°
Enters shadow 19:58:36 18° 84° (E) 1,094 -2.2 -12.1°
